When you browse on this site, cookies collect data to enhance your experience and personalize the content and advertising you see.
Visit our Privacy Policy to learn more. By continuing to use the site, you agree to this use of cookies and data.
  • In United Kingdom
  • List of Countries
  • For 7 days
  • Water Temperature
  • Satellite Maps
  • Weather Map
  • Weather Widgets
  • user-avatar
    Login

    Hourly Weather Aluksne

    Today, 21 January, Monday

    Time Temperature Precipitation Wind Pressure Humidity
    00:00 -13°C° 0 mm 2 mps 739 mmHg 95%
    01:00 -13°C° 0 mm 2 mps 739 mmHg 95%
    02:00 -13°C° 0 mm 2 mps 739 mmHg 94%
    03:00 -13°C° 0 mm 2 mps 739 mmHg 95%
    04:00 -12°C° 0 mm 2 mps 739 mmHg 95%
    05:00 -12°C° 0 mm 2 mps 739 mmHg 95%
    06:00 -13°C° 0 mm 2 mps 740 mmHg 96%
    07:00 -13°C° 0 mm 2 mps 740 mmHg 96%
    08:00 -14°C° 0 mm 2 mps 740 mmHg 96%
    09:00 -14°C° 0 mm 2 mps 740 mmHg 94%
    10:00 -13°C° 0 mm 2 mps 741 mmHg 91%
    11:00 -13°C° 0 mm 2 mps 741 mmHg 89%
    12:00 -12°C° 0 mm 2 mps 741 mmHg 88%
    13:00 -12°C° 0 mm 2 mps 741 mmHg 86%
    14:00 -10°C° 0 mm 2 mps 742 mmHg 85%
    15:00 -13°C° 0 mm 2 mps 742 mmHg 88%
    16:00 -14°C° 0 mm 2 mps 742 mmHg 91%
    17:00 -13°C° 0 mm 1 mps 743 mmHg 94%
    18:00 -14°C° 0 mm 1 mps 743 mmHg 95%
    19:00 -14°C° 0 mm 1 mps 743 mmHg 95%
    20:00 -15°C° 0 mm 1 mps 743 mmHg 95%
    21:00 -15°C° 0 mm 1 mps 743 mmHg 95%
    22:00 -16°C° 0 mm 0 mps 744 mmHg 94%
    23:00 -16°C° 0 mm 0 mps 744 mmHg 94%

    Tomorrow, 22 January, Tuesday

    Time Temperature Precipitation Wind Pressure Humidity
    00:00 -16°C° 0 mm 0 mps 744 mmHg 94%
    01:00 -16°C° 0 mm 0 mps 744 mmHg 94%
    02:00 -17°C° 0 mm 0 mps 744 mmHg 94%
    03:00 -17°C° 0 mm 0 mps 744 mmHg 94%
    04:00 -17°C° 0 mm 1 mps 744 mmHg 94%
    05:00 -17°C° 0 mm 1 mps 744 mmHg 94%
    06:00 -17°C° 0 mm 1 mps 744 mmHg 94%
    07:00 -17°C° 0 mm 1 mps 744 mmHg 94%
    08:00 -17°C° 0 mm 1 mps 744 mmHg 94%
    09:00 -16°C° 0 mm 1 mps 744 mmHg 93%
    10:00 -15°C° 0 mm 1 mps 744 mmHg 92%
    11:00 -14°C° 0 mm 1 mps 745 mmHg 91%
    12:00 -13°C° 0 mm 1 mps 744 mmHg 91%
    13:00 -12°C° 0 mm 1 mps 744 mmHg 90%
    14:00 -12°C° 0 mm 1 mps 744 mmHg 90%
    15:00 -13°C° 0 mm 1 mps 744 mmHg 92%
    16:00 -14°C° 0 mm 1 mps 743 mmHg 93%
    17:00 -15°C° 0 mm 1 mps 743 mmHg 95%
    18:00 -15°C° 0 mm 1 mps 743 mmHg 95%
    19:00 -17°C° 0 mm 2 mps 743 mmHg 95%
    20:00 -17°C° 0 mm 2 mps 743 mmHg 96%
    21:00 -17°C° 0 mm 2 mps 743 mmHg 96%
    22:00 -17°C° 0 mm 2 mps 743 mmHg 97%
    23:00 -17°C° 0 mm 2 mps 742 mmHg 97%

    Day after tomorrow, 23 January, Wednesday

    Time Temperature Precipitation Wind Pressure Humidity
    00:00 -15°C° 0 mm 2 mps 742 mmHg 97%
    01:00 -14°C° 0 mm 2 mps 742 mmHg 97%
    02:00 -13°C° 0 mm 2 mps 742 mmHg 97%
    03:00 -12°C° 0 mm 2 mps 742 mmHg 96%
    04:00 -10°C° 0 mm 2 mps 742 mmHg 96%
    05:00 -10°C° 0 mm 2 mps 742 mmHg 95%
    06:00 -12°C° 0 mm 3 mps 741 mmHg 95%
    07:00 -12°C° 0 mm 3 mps 741 mmHg 95%
    08:00 -12°C° 0 mm 3 mps 741 mmHg 95%
    09:00 -12°C° 0 mm 3 mps 741 mmHg 95%
    10:00 -12°C° 0 mm 3 mps 741 mmHg 94%
    11:00 -12°C° 0 mm 3 mps 742 mmHg 94%
    12:00 -10°C° 0 mm 3 mps 741 mmHg 93%
    13:00 -10°C° 0 mm 3 mps 741 mmHg 93%
    14:00 -10°C° 0 mm 3 mps 741 mmHg 93%
    15:00 -10°C° 0 mm 3 mps 741 mmHg 93%
    16:00 -10°C° 0 mm 3 mps 741 mmHg 93%
    17:00 -10°C° 0 mm 3 mps 742 mmHg 93%
    18:00 -10°C° 0 mm 3 mps 742 mmHg 94%
    19:00 -10°C° 0 mm 3 mps 742 mmHg 94%
    20:00 -12°C° 0 mm 3 mps 742 mmHg 94%
    21:00 -13°C° 0 mm 3 mps 742 mmHg 95%
    22:00 -12°C° 0 mm 2 mps 742 mmHg 95%
    23:00 -13°C° 0 mm 2 mps 742 mmHg 95%

    24 January, Thursday

    Time Temperature Precipitation Wind Pressure Humidity
    00:00 -14°C° 0 mm 2 mps 742 mmHg 95%
    01:00 -14°C° 0 mm 2 mps 742 mmHg 94%
    02:00 -14°C° 0 mm 2 mps 742 mmHg 94%
    03:00 -14°C° 0 mm 2 mps 742 mmHg 93%
    04:00 -14°C° 0 mm 2 mps 742 mmHg 93%
    05:00 -14°C° 0 mm 2 mps 742 mmHg 92%
    06:00 -13°C° 0 mm 2 mps 743 mmHg 93%
    07:00 -13°C° 0 mm 2 mps 743 mmHg 93%
    08:00 -12°C° 0 mm 2 mps 743 mmHg 93%
    09:00 -10°C° 0 mm 2 mps 743 mmHg 92%
    10:00 -9°C° 0 mm 2 mps 744 mmHg 92%
    11:00 -8°C° 0 mm 2 mps 744 mmHg 92%
    12:00 -8°C° 0 mm 2 mps 744 mmHg 92%
    13:00 -6°C° 0 mm 1 mps 744 mmHg 92%
    14:00 -4°C° 0 mm 1 mps 745 mmHg 91%
    15:00 -6°C° 0 mm 1 mps 745 mmHg 93%
    16:00 -7°C° 0 mm 1 mps 745 mmHg 94%
    17:00 -8°C° 0 mm 1 mps 745 mmHg 95%
    18:00 -8°C° 0 mm 0 mps 745 mmHg 95%
    19:00 -9°C° 0 mm 0 mps 745 mmHg 94%
    20:00 -9°C° 0 mm 0 mps 746 mmHg 94%
    21:00 -9°C° 0 mm 1 mps 746 mmHg 94%
    22:00 -9°C° 0 mm 1 mps 746 mmHg 95%
    23:00 -8°C° 0 mm 1 mps 746 mmHg 95%

    25 January, Friday

    Time Temperature Precipitation Wind Pressure Humidity
    00:00 -8°C° 0 mm 1 mps 746 mmHg 95%
    01:00 -9°C° 0 mm 1 mps 747 mmHg 95%
    02:00 -9°C° 0 mm 1 mps 747 mmHg 96%
    03:00 -9°C° 0 mm 1 mps 747 mmHg 96%
    04:00 -10°C° 0 mm 1 mps 747 mmHg 96%
    05:00 -10°C° 0 mm 1 mps 747 mmHg 96%
    06:00 -10°C° 0 mm 1 mps 747 mmHg 97%
    07:00 -11°C° 0 mm 1 mps 747 mmHg 97%
    08:00 -11°C° 0 mm 1 mps 747 mmHg 97%
    09:00 -10°C° 0 mm 1 mps 747 mmHg 97%
    10:00 -10°C° 0 mm 2 mps 748 mmHg 96%
    11:00 -9°C° 0 mm 2 mps 748 mmHg 95%
    12:00 -9°C° 0 mm 2 mps 748 mmHg 94%
    13:00 -8°C° 0 mm 2 mps 748 mmHg 93%
    14:00 -8°C° 0 mm 2 mps 748 mmHg 92%
    15:00 -8°C° 0 mm 2 mps 748 mmHg 93%
    16:00 -9°C° 0 mm 2 mps 747 mmHg 94%
    17:00 -9°C° 0 mm 2 mps 747 mmHg 94%
    18:00 -10°C° 0 mm 2 mps 747 mmHg 95%
    19:00 -10°C° 0 mm 2 mps 747 mmHg 95%
    20:00 -10°C° 0 mm 2 mps 747 mmHg 95%
    21:00 -12°C° 0 mm 2 mps 747 mmHg 96%
    22:00 -13°C° 0 mm 2 mps 747 mmHg 96%
    23:00 -14°C° 0 mm 2 mps 747 mmHg 97%

    26 January, Saturday

    Time Temperature Precipitation Wind Pressure Humidity
    00:00 -14°C° 0 mm 2 mps 747 mmHg 96%
    01:00 -15°C° 0 mm 2 mps 747 mmHg 94%
    02:00 -16°C° 0 mm 2 mps 746 mmHg 93%
    03:00 -16°C° 0 mm 2 mps 746 mmHg 92%
    04:00 -17°C° 0 mm 2 mps 746 mmHg 91%
    05:00 -18°C° 0 mm 2 mps 745 mmHg 90%
    06:00 -18°C° 0 mm 2 mps 745 mmHg 90%
    07:00 -19°C° 0 mm 2 mps 745 mmHg 89%
    08:00 -19°C° 0 mm 2 mps 745 mmHg 88%
    09:00 -18°C° 0 mm 2 mps 744 mmHg 86%
    10:00 -19°C° 0 mm 3 mps 744 mmHg 84%
    11:00 -18°C° 0 mm 3 mps 744 mmHg 82%
    12:00 -17°C° 0 mm 3 mps 743 mmHg 83%
    13:00 -17°C° 0 mm 3 mps 743 mmHg 83%
    14:00 -16°C° 0 mm 3 mps 742 mmHg 83%
    15:00 -16°C° 0 mm 3 mps 742 mmHg 84%
    16:00 -17°C° 0 mm 3 mps 742 mmHg 86%
    17:00 -17°C° 0 mm 3 mps 741 mmHg 87%
    18:00 -18°C° 0 mm 4 mps 741 mmHg 86%
    19:00 -18°C° 0 mm 4 mps 740 mmHg 85%
    20:00 -18°C° 0 mm 4 mps 740 mmHg 83%
    21:00 -18°C° 0 mm 4 mps 740 mmHg 82%
    22:00 -18°C° 0 mm 4 mps 739 mmHg 81%
    23:00 -19°C° 0 mm 5 mps 739 mmHg 80%
    Show more